ニート彗星

P/2003 QX29 ( NEAT ) 2025

English version
Home page
Updated on September 8, 2024

---------------------------------------------------------------------

・ プロフィール

・ 軌道要素

Perturbed ephemeris below is based on elements from MPC 50139. 

 Epoch = 2460880.50000 TT   T = 2460894.46047 TT
 Peri. =   37.69074         a =     7.9990619 AU
 Node  =  264.48422 J2000.0 e =     0.4712842
 Incl. =   11.40010         q =     4.2292305 AU

・ 光度変化

        m1 = 10.0 + 5 logΔ + 10.0 log r

---------------------------------------------------------------------

軌道要素はMinor Planet & Comet Ephemeris Serviceで計算したものです。
光度グラフはComet for Windowsで作成したものです。

---------------------------------------------------------------------

Copyright(C) Seiichi Yoshida (comet@aerith.net). All rights reserved.